Location: Miss�
(46.9484°N, 0.1922°W)
Time: 22:08:45
(UTC+00:00)

Meteor 1-13 Rocket - Pass Details

Date: 02 March 2021
Orbit: 830 x 913 km, 81.3° (Epoch: 20 April)

Event Time Altitude Azimuth Distance (km) Brightness Sun altitude
Rises 19:41:03 0° 350° (N) 3,559 7.7 -20.0°
Reaches altitude 10° 19:43:33 10° 352° (N) 2,611 7.0 -20.4°
Maximum altitude 19:49:31 73° 77° (ENE) 948 4.2 -21.4°
Enters shadow 19:52:59 26° 158° (SSE) 1,699 5.4 -22.0°
